This is the latest recevied weather packets stored in our database for station/object DB0OHL. If no packets are shown the sender has not sent any weather packets the latest 1 day(s).
| Time | Temp. | Humidity | Pressure | Rain* | Wind** | Luminosity | Snow |
|---|---|---|---|---|---|---|---|
| 1778045761 | 8.33° C | 99% | 1005.7 hPa | 1.27 mm | - | - | - |
| 1778045159 | 8.33° C | 99% | 1005.6 hPa | 1.52 mm | - | - | - |
| 1778044556 | 8.33° C | 99% | 1005.7 hPa | 1.52 mm | - | - | - |
| 1778043351 | 8.33° C | 99% | 1005.5 hPa | 1.52 mm | - | - | - |
| 1778042146 | 8.33° C | 99% | 1005.6 hPa | 1.27 mm | - | - | - |
| 1778040941 | 8.33° C | 99% | 1005.5 hPa | 1.27 mm | - | - | - |
| 1778039736 | 8.33° C | 99% | 1005.6 hPa | 1.27 mm | - | - | - |
| 1778039133 | 8.33° C | 99% | 1005.5 hPa | 1.52 mm | - | - | - |
| 1778037958 | 8.89° C | 99% | 1005.6 hPa | 1.78 mm | - | - | - |
| 1778036753 | 8.89° C | 99% | 1005.8 hPa | 1.78 mm | - | - | - |
| 1778035548 | 8.89° C | 99% | 1005.8 hPa | 2.03 mm | - | - | - |
| 1778034343 | 8.89° C | 99% | 1005.9 hPa | 2.03 mm | - | - | - |
| 1778033740 | 8.89° C | 99% | 1005.9 hPa | 2.03 mm | - | - | - |
| 1778033138 | 8.89° C | 99% | 1005.9 hPa | 2.03 mm | - | - | - |
| 1778032535 | 8.89° C | 99% | 1006 hPa | 2.29 mm | - | - | - |
| 1778031933 | 8.89° C | 99% | 1006 hPa | 2.03 mm | - | - | - |
| 1778031330 | 8.89° C | 99% | 1006 hPa | 2.03 mm | - | - | - |
| 1778030728 | 8.89° C | 99% | 1006 hPa | 1.78 mm | - | - | - |
| 1778030125 | 8.89° C | 99% | 1006.1 hPa | 1.78 mm | - | - | - |
| 1778029523 | 8.89° C | 99% | 1006.2 hPa | 2.03 mm | - | - | - |
| 1778028920 | 8.89° C | 99% | 1006.3 hPa | 2.03 mm | - | - | - |
| 1778027715 | 8.89° C | 99% | 1006.4 hPa | 2.29 mm | - | - | - |
| 1778027173 | 8.89° C | 99% | 1006.5 hPa | 2.29 mm | - | - | - |
| 1778026570 | 8.89° C | 99% | 1006.5 hPa | 2.79 mm | - | - | - |
| 1778025968 | 8.89° C | 99% | 1006.6 hPa | 3.3 mm | - | - | - |
* Rain latest hour (hover to see other rain measurements)
** Current wind speed in m/s (hover to see current wind gust speed)